Weather in Borisovo

Russia / Kaluga Oblast     55°10′33″N   36°04′50″E
temp.,
°C
wind,
m/s
gust,
m/s
humid.,
%
clouds,
%
prec.,
mm/h
press.,
hPa
HPBL,
m
6 march, sat
sat600:00−9nw239045 0.0 101541
03:00−10nnw239246 0.0 101780
06:00−11nw23940 0.0 101786
09:00−9wnw36881 0.0 1018243
12:00−5wnw357450 0.0 10181019
15:00−5wnw476975 0.2 10161238
18:00−7w258377 0.1 1016100
21:00−9wsw389041 0.1 1015175
7 march, sun
sun700:00−8sw4118736 0.0 1012388
03:00−7sw6138068 0.0 1008779
06:00−5sw71492100 1.1 10031063
09:00−4sw81690100 2.4 9981184
12:00−2sw91787100 1.3 9931301
15:00−4nw71567100 2.9 9941304
18:00−6wsw310707 0.0 997317
21:00−6w4118438 0.0 998795
8 march, mon
mon800:00−6sw5148585 0.5 9951188
03:00−6wnw379592 1.0 995393
06:00−8nw4992100 2.4 997592
09:00−10wnw6128372 2.4 1001803
12:00−7wnw5981100 0.1 10031010
15:00−6nw5980100 0.2 10051173
18:00−8nw3890100 0.2 1008494
21:00−10nw3895100 0.3 1011315
9 march, tue
tue900:00−13nw239776 0.0 101382
03:00−14nnw249786 0.1 1014100
06:00−15nnw2597100 0.0 1016186
09:00−15nnw369389 0.0 1017299
12:00−12nnw368390 0.0 1018549
15:00−11nnw367788 0.0 1019789
18:00−13nnw229078 0.0 102072
21:00−16nw119585 0.0 102220
10 march, wed
wed1000:00−17nnw119699 0.0 102320
03:00−17ene129599 0.0 102355
06:00−17e2495100 0.1 1023172
09:00−17e3490100 0.3 1023246
12:00−14ene357893 0.0 1024431
15:00−12ene247246 0.0 1025616
18:00−15ene22870 0.0 102530
21:00−19ese229315 0.0 102721